Location: Newark
(49.8969°N, 3.3422°E)
Time: 17:12:36
(UTC+00:00)

Tiros 1 - Pass Details

Date: 15 May 2021
Orbit: 630 x 664 km, 48.4° (Epoch: 11 June)

Event Time Altitude Azimuth Distance (km) Brightness Sun altitude
Exits shadow 23:02:15 14° 100° (E) 1,818 9.2 -20.4°
Drops below altitude 10° 23:03:09 10° 92° (E) 2,075 9.6 -20.4°
Sets 23:05:51 0° 79° (ENE) 2,985 10.6 -20.5°
